Location: Unspecified
(0.0000°N, 0.0000°E)
Time: 14:16:26
(UTC+00:00)

LightSail 2 - Pass Details

Date: 16 September 2019
Orbit: 699 x 732 km, 24.0° (Epoch: 17 September)

Event Time Altitude Azimuth Distance (km) Brightness Sun altitude
Exits shadow 04:12:16 41° 356° (N) 1,001 5.8 -25.7°
Drops below altitude 10° 04:16:27 10° 46° (NE) 2,151 8.2 -24.6°
Sets 04:18:59 0° 53° (NE) 3,072 9.3 -24.0°
